Location: Spruce Knob
(38.6995°N, 79.5330°W)
Time: 04:54:37
(UTC-05:00)

AAUSAT CUBESAT 2 - Visible Passes

Search period start: 05 March 2024 00:00
Search period end: 15 March 2024 01:00
Orbit: 525 x 534 km, 97.6° (Epoch: 04 March)

Date Brightness Start Highest point End Pass type
(mag) Time Alt. Az. Time Alt. Az. Time Alt. Az.
05 Mar ? 05:06:56 10° N 05:10:37 49° WNW 05:10:39 49° WNW visible
06 Mar ? 04:56:16 10° N 05:00:05 69° WNW 05:00:11 68° W visible
07 Mar ? 04:45:39 10° NNE 04:49:29 85° ESE 04:49:41 79° SSE visible
08 Mar ? 04:35:03 10° NNE 04:38:50 61° E 04:39:09 58° SE visible
09 Mar ? 04:24:30 10° NNE 04:28:09 43° E 04:28:35 41° ESE visible
09 Mar ? 06:00:29 10° NW 06:02:03 12° WNW 06:03:37 10° W visible
10 Mar ? 05:13:59 10° NNE 05:17:24 31° E 05:17:59 30° ESE visible
10 Mar ? 06:49:03 10° NNW 06:51:27 16° WNW 06:53:16 12° W visible
11 Mar ? 05:03:32 10° NE 05:06:38 23° E 05:07:21 22° ESE visible
11 Mar ? 06:37:53 10° NNW 06:40:48 21° WNW 06:42:38 15° WSW visible
12 Mar ? 04:53:12 10° NE 04:55:47 17° E 04:56:40 16° ESE visible
12 Mar ? 06:26:49 10° NNW 06:30:07 28° WNW 06:31:58 19° WSW visible
13 Mar ? 04:43:08 10° ENE 04:44:54 13° E 04:45:59 12° ESE visible
13 Mar ? 06:15:49 10° N 06:19:22 38° WNW 06:21:16 22° SW visible
14 Mar ? 06:04:51 10° N 06:08:34 53° WNW 06:10:32 25° SW visible
